User: anonymous   Login
Location: Theydon Bois
(51.6750°N, 0.1050°E)
Time: 05:39:43
(UTC+01:00)
Language:

RESURS DK-1 - Orbit

View from above orbital plane
View from above orbital plane
View from above satellite
View from above satellite

Ground track
Ground track

The orbit data is extracted from the following two-line orbital elements,

1 29228U 06021A   17294.82541419  .00000177  00000-0  20780-4 0  9995
2 29228  69.9340 135.8703 0003997 189.2365 170.8722 15.02227880627114
Epoch (UTC): 21 October 2017 19:48:35
Eccentricity: 0.0003997
inclination: 69.9340°
perigee height: 557 km
apogee height: 563 km
right ascension of ascending node: 135.8703°
argument of perigee: 189.2365°
revolutions per day: 15.02227880
mean anomaly at epoch: 170.8722°
orbit number at epoch: 62711

The dashed part of the orbit path shows where the satellite is in the earth's shadow,  

DLR